KE0QIB Weather Reports


Display with metric or nautical units.
time (UTC)temp
F
wind
direction
speed
MPH
gust
MPH
rain 1hr
in
rain 24hr
in
rain mn
in
humidity
%
barometer
mb
20260507144147 54 53 2.0 3.0 0.00 0.00 0.00 30 996.0
20260507143647 54 53 2.0 4.0 0.00 0.00 0.00 30 996.0
20260507143147 54 51 1.0 4.0 0.00 0.00 0.00 32 996.0
20260507142647 53 51 2.0 4.0 0.00 0.00 0.00 34 996.0
20260507142147 53 51 2.0 5.0 0.00 0.00 0.00 31 996.0
20260507141647 52 51 2.0 7.0 0.00 0.00 0.00 31 996.0
20260507141147 52 98 2.0 4.0 0.00 0.00 0.00 34 996.0
20260507140647 52 98 2.0 4.0 0.00 0.00 0.00 34 995.8
20260507140147 52 98 2.0 5.0 0.00 0.00 0.00 32 995.8
20260507135647 51 192 1.0 4.0 0.00 0.00 0.00 33 995.8
20260507135147 51 194 0.0 4.0 0.00 0.00 0.00 34 996.0
20260507134647 50 196 0.0 0.0 0.00 0.00 0.00 34 996.0
20260507134147 50 196 0.0 0.0 0.00 0.00 0.00 35 996.0
20260507133647 49 196 0.0 0.0 0.00 0.00 0.00 40 995.6
20260507133147 49 196 0.0 0.0 0.00 0.00 0.00 41 995.6
20260507132647 49 196 0.0 0.0 0.00 0.00 0.00 45 995.6
20260507132147 49 196 0.0 0.0 0.00 0.00 0.00 41 995.3
20260507131647 49 196 0.0 0.0 0.00 0.00 0.00 43 995.3
20260507131147 48 196 0.0 0.0 0.00 0.00 0.00 39 995.3
20260507130647 47 196 0.0 0.0 0.00 0.00 0.00 39 995.5
20260507130147 46 196 0.0 0.0 0.00 0.00 0.00 41 995.5
20260507125647 45 196 0.0 0.0 0.00 0.00 0.00 43 995.5
20260507125147 44 196 0.0 0.0 0.00 0.00 0.00 45 995.8
20260507124647 44 196 0.0 0.0 0.00 0.00 0.00 46 995.8
20260507124147 43 196 0.0 0.0 0.00 0.00 0.00 46 995.8
20260507123647 42 196 1.0 0.0 0.00 0.00 0.00 44 995.6
20260507123147 42 196 1.0 2.0 0.00 0.00 0.00 44 995.6
20260507122647 42 196 1.0 2.0 0.00 0.00 0.00 44 995.6
20260507122147 41 196 1.0 2.0 0.00 0.00 0.00 43 995.6
20260507121647 41 196 1.0 2.0 0.00 0.00 0.00 44 995.6
20260507121147 41 196 1.0 2.0 0.00 0.00 0.00 43 995.6
20260507120647 40 196 2.0 2.0 0.00 0.00 0.00 44 995.6
20260507120147 40 196 2.0 2.0 0.00 0.00 0.00 44 995.6
20260507115647 40 196 2.0 2.0 0.00 0.00 0.00 45 995.6
20260507115147 39 196 2.0 3.0 0.00 0.00 0.00 46 995.9
20260507114647 39 196 2.0 3.0 0.00 0.00 0.00 45 995.9
20260507114147 39 196 2.0 3.0 0.00 0.00 0.00 45 995.9
20260507113647 39 196 2.0 3.0 0.00 0.00 0.00 46 995.6
20260507113147 39 196 2.0 3.0 0.00 0.00 0.00 45 995.6
20260507112647 39 196 2.0 3.0 0.00 0.00 0.00 46 995.6
20260507112147 39 196 2.0 3.0 0.00 0.00 0.00 44 995.3
20260507111647 39 196 3.0 3.0 0.00 0.00 0.00 45 995.3
20260507111147 39 196 3.0 3.0 0.00 0.00 0.00 44 995.3
20260507110647 39 196 3.0 3.0 0.00 0.00 0.00 45 995.0
20260507110147 38 196 3.0 4.0 0.00 0.00 0.00 45 995.0
20260507105647 38 196 3.0 4.0 0.00 0.00 0.00 45 995.0
20260507105147 38 196 2.0 4.0 0.00 0.00 0.00 45 995.0
20260507104647 38 186 2.0 3.0 0.00 0.00 0.00 44 995.0
20260507104147 39 186 2.0 3.0 0.00 0.00 0.00 44 994.9
20260507103647 39 186 2.0 3.0 0.00 0.00 0.00 43 994.9
20260507103147 39 186 2.0 3.0 0.00 0.00 0.00 43 994.9
20260507102647 39 186 2.0 3.0 0.00 0.00 0.00 43 994.9
20260507102147 40 186 2.0 3.0 0.00 0.00 0.00 43 994.9
20260507101647 40 186 2.0 3.0 0.00 0.00 0.00 42 994.9
20260507101147 40 186 2.0 3.0 0.00 0.00 0.00 42 994.9
20260507100647 40 186 2.0 3.0 0.00 0.00 0.00 41 995.0
20260507100147 40 186 2.0 3.0 0.00 0.00 0.00 41 995.0
20260507095647 40 186 2.0 3.0 0.00 0.00 0.00 42 995.0
20260507095147 40 186 2.0 3.0 0.00 0.00 0.00 42 995.0
20260507094647 40 186 2.0 3.0 0.00 0.00 0.00 41 995.0
20260507094147 40 186 2.0 3.0 0.00 0.00 0.00 41 995.0
20260507093647 40 186 2.0 3.0 0.00 0.00 0.00 42 994.9
20260507093147 40 186 2.0 3.0 0.00 0.00 0.00 42 994.9
20260507092647 40 186 2.0 3.0 0.00 0.00 0.00 42 994.7
20260507092147 40 186 2.0 3.0 0.00 0.00 0.00 42 994.7
20260507091647 40 186 2.0 3.0 0.00 0.00 0.00 42 994.7
20260507091147 40 186 2.0 3.0 0.00 0.00 0.00 41 994.7
20260507090647 40 186 2.0 3.0 0.00 0.00 0.00 41 994.6
20260507090147 40 186 2.0 3.0 0.00 0.00 0.00 42 994.6
20260507085647 40 186 2.0 3.0 0.00 0.00 0.00 41 994.6
20260507085147 41 186 2.0 3.0 0.00 0.00 0.00 42 994.7
20260507084647 41 186 2.0 3.0 0.00 0.00 0.00 42 994.7
20260507084147 41 186 2.0 3.0 0.00 0.00 0.00 41 994.7
20260507083647 41 186 2.0 3.0 0.00 0.00 0.00 42 994.7
20260507083147 41 186 2.0 3.0 0.00 0.00 0.00 41 994.7
20260507082647 41 186 2.0 3.0 0.00 0.00 0.00 41 994.7
20260507082147 41 186 2.0 3.0 0.00 0.00 0.00 42 994.8
20260507081647 41 186 2.0 3.0 0.00 0.00 0.00 42 994.8
20260507081147 41 186 2.0 3.0 0.00 0.00 0.00 42 994.8
20260507080647 41 186 2.0 3.0 0.00 0.00 0.00 41 995.0
20260507080147 41 186 2.0 3.0 0.00 0.00 0.00 42 995.0
20260507075647 41 186 2.0 3.0 0.00 0.00 0.00 41 995.0
20260507075148 41 186 2.0 3.0 0.00 0.00 0.00 42 995.1
20260507074647 41 186 2.0 3.0 0.00 0.00 0.00 42 995.1
20260507074148 41 186 2.0 3.0 0.00 0.00 0.00 42 995.1
20260507073648 41 186 2.0 3.0 0.00 0.00 0.00 41 995.1
20260507073147 41 186 2.0 3.0 0.00 0.00 0.00 42 995.1
20260507072648 41 186 2.0 3.0 0.00 0.00 0.00 42 995.1
20260507072148 41 186 2.0 3.0 0.00 0.00 0.00 41 995.3
20260507071648 41 186 1.0 2.0 0.00 0.00 0.00 41 995.3
20260507071148 40 186 1.0 3.0 0.00 0.00 0.00 41 995.3
20260507070648 40 186 0.0 2.0 0.00 0.00 0.00 41 995.3
20260507070148 40 186 0.0 0.0 0.00 0.00 0.00 42 995.3
20260507065648 40 186 0.0 0.0 0.00 0.00 0.00 41 995.3
20260507065148 40 186 0.0 0.0 0.00 0.00 0.00 42 995.4
20260507064648 40 186 0.0 0.0 0.00 0.00 0.00 41 995.4
20260507064148 40 186 0.0 0.0 0.00 0.00 0.00 41 995.4
20260507063648 40 186 0.0 0.0 0.00 0.00 0.00 41 995.6
20260507063148 40 186 0.0 0.0 0.00 0.00 0.00 41 995.6
20260507062648 40 186 0.0 0.0 0.00 0.00 0.00 39 995.6
20260507062148 40 186 0.0 0.0 0.00 0.00 0.00 40 995.8
20260507061648 40 186 0.0 0.0 0.00 0.00 0.00 41 995.8
20260507061148 40 186 0.0 0.0 0.00 0.00 0.00 40 995.8
20260507060648 40 186 0.0 0.0 0.00 0.00 0.00 39 995.8
20260507060148 40 186 0.0 0.0 0.00 0.00 0.00 40 995.8
20260507055648 41 186 0.0 0.0 0.00 0.00 0.00 40 995.8
20260507055148 41 186 0.0 0.0 0.00 0.00 0.00 39 995.8
20260507054648 41 186 0.0 0.0 0.00 0.00 0.00 38 995.8
20260507054148 41 186 0.0 0.0 0.00 0.00 0.00 37 995.8
20260507053648 42 186 0.0 0.0 0.00 0.00 0.00 38 995.9
20260507053148 42 186 0.0 0.0 0.00 0.00 0.00 37 995.9
20260507052648 42 186 0.0 0.0 0.00 0.00 0.00 38 995.9
20260507052148 42 186 0.0 0.0 0.00 0.00 0.00 36 996.1
20260507051648 42 186 0.0 0.0 0.00 0.00 0.00 38 996.1
20260507051148 42 186 0.0 0.0 0.00 0.00 0.00 37 996.1
20260507050648 41 186 0.0 0.0 0.00 0.00 0.00 38 996.2
20260507050148 41 186 0.0 0.0 0.00 0.00 0.00 40 996.2
20260507045648 41 186 0.0 0.0 0.00 0.00 0.00 39 996.2
20260507045148 41 186 0.0 0.0 0.00 0.00 0.00 40 996.3
20260507044648 41 186 0.0 0.0 0.00 0.00 0.00 39 996.3
20260507044148 41 186 0.0 0.0 0.00 0.00 0.00 39 996.3
20260507043648 42 186 0.0 0.0 0.00 0.00 0.00 38 996.6
20260507043148 42 186 0.0 0.0 0.00 0.00 0.00 38 996.6
20260507042648 41 186 1.0 3.0 0.00 0.00 0.00 39 996.6
20260507042148 41 186 2.0 3.0 0.00 0.00 0.00 40 996.9
20260507041648 41 186 2.0 3.0 0.00 0.00 0.00 41 996.9
20260507041148 41 186 2.0 3.0 0.00 0.00 0.00 41 996.9
20260507040648 42 186 1.0 3.0 0.00 0.00 0.00 40 997.1
20260507040148 42 186 0.0 3.0 0.00 0.00 0.00 39 997.1
20260507035648 43 119 0.0 0.0 0.00 0.00 0.00 39 997.1
20260507035148 43 119 0.0 0.0 0.00 0.00 0.00 39 997.1
20260507034648 43 119 0.0 0.0 0.00 0.00 0.00 37 997.1
20260507034148 43 119 0.0 0.0 0.00 0.00 0.00 37 997.1
20260507033648 43 119 0.0 0.0 0.00 0.00 0.00 37 997.3
20260507033148 43 119 0.0 0.0 0.00 0.00 0.00 37 997.3
20260507032648 43 119 0.0 0.0 0.00 0.00 0.00 37 997.3
20260507032148 44 119 0.0 0.0 0.00 0.00 0.00 36 997.3
20260507031648 44 119 0.0 0.0 0.00 0.00 0.00 36 997.3
20260507031148 44 119 0.0 0.0 0.00 0.00 0.00 37 997.3
20260507030648 44 119 0.0 0.0 0.00 0.00 0.00 36 997.3
20260507030148 44 119 0.0 0.0 0.00 0.00 0.00 38 997.3
20260507025648 44 119 0.0 0.0 0.00 0.00 0.00 38 997.3
20260507025148 44 119 0.0 0.0 0.00 0.00 0.00 38 997.4
20260507024648 44 119 0.0 0.0 0.00 0.00 0.00 40 997.4
20260507024148 44 119 0.0 0.0 0.00 0.00 0.00 41 997.4
20260507023648 44 119 0.0 0.0 0.00 0.00 0.00 40 997.5
20260507023148 44 119 0.0 0.0 0.00 0.00 0.00 41 997.5
20260507022648 44 119 0.0 0.0 0.00 0.00 0.00 40 997.5
20260507022148 45 119 0.0 0.0 0.00 0.00 0.00 40 998.1
20260507021648 45 119 0.0 0.0 0.00 0.00 0.00 39 998.1
20260507021148 46 119 0.0 0.0 0.00 0.00 0.00 39 998.1
20260507020648 46 119 0.0 0.0 0.00 0.00 0.00 38 997.8
20260507020148 47 119 0.0 0.0 0.00 0.00 0.00 37 997.8
20260507015648 47 119 0.0 0.0 0.00 0.00 0.00 37 997.8
20260507015148 48 119 0.0 0.0 0.00 0.00 0.00 37 997.6
20260507014648 49 119 0.0 0.0 0.00 0.00 0.00 35 997.6
20260507014148 49 119 0.0 0.0 0.00 0.00 0.00 34 997.6
20260507013648 49 119 0.0 0.0 0.00 0.00 0.00 33 997.5
20260507013148 49 119 0.0 0.0 0.00 0.00 0.00 32 997.5
20260507012648 50 119 0.0 0.0 0.00 0.00 0.00 32 997.5
20260507012148 50 119 0.0 3.0 0.00 0.00 0.00 32 997.8
20260507011648 50 119 1.0 0.0 0.00 0.00 0.00 32 997.8
20260507011148 50 119 1.0 3.0 0.00 0.00 0.00 32 997.8
20260507010648 50 119 1.0 3.0 0.00 0.00 0.00 33 997.8
20260507010148 50 119 1.0 4.0 0.00 0.00 0.00 32 997.8
20260507005648 50 119 1.0 4.0 0.00 0.00 0.00 33 997.8
20260507005148 50 119 1.0 3.0 0.00 0.00 0.00 31 997.8
20260507004648 51 119 2.0 4.0 0.00 0.00 0.00 31 997.8
20260507004148 51 119 2.0 4.0 0.00 0.00 0.00 32 997.8
20260507003648 51 121 2.0 4.0 0.00 0.00 0.00 30 997.8
20260507003148 51 148 1.0 4.0 0.00 0.00 0.00 31 997.8
20260507002648 51 158 1.0 2.0 0.00 0.00 0.00 30 997.8
20260507002148 51 159 1.0 2.0 0.00 0.00 0.00 30 998.9
20260507001648 51 159 1.0 2.0 0.00 0.00 0.00 29 998.9
20260507001148 51 159 2.0 5.0 0.00 0.00 0.00 29 998.9
20260507000648 51 102 2.0 3.0 0.00 0.00 0.00 30 999.0
20260507000148 52 102 2.0 4.0 0.00 0.00 0.00 30 999.0
20260506235648 52 119 2.0 4.0 0.00 0.00 0.00 29 999.0
20260506235148 52 121 1.0 5.0 0.00 0.00 0.00 29 999.2
20260506234649 52 112 1.0 2.0 0.00 0.00 0.00 30 999.2
20260506234148 52 111 2.0 4.0 0.00 0.00 0.00 29 999.2
20260506233648 52 67 2.0 4.0 0.00 0.00 0.00 30 999.0
20260506233148 52 59 2.0 4.0 0.00 0.00 0.00 29 999.0
20260506232648 52 140 2.0 5.0 0.00 0.00 0.00 28 999.0
20260506232148 53 153 1.0 4.0 0.00 0.00 0.00 27 999.1
20260506231649 53 105 1.0 5.0 0.00 0.00 0.00 29 999.1
20260506231148 53 158 2.0 3.0 0.00 0.00 0.00 29 999.1
20260506230649 52 158 2.0 4.0 0.00 0.00 0.00 28 999.4
20260506230149 52 94 3.0 5.0 0.00 0.00 0.00 28 999.4
20260506225649 52 155 2.0 7.0 0.00 0.00 0.00 29 999.4
20260506225149 51 87 2.0 4.0 0.00 0.00 0.00 29 999.6
20260506224649 51 86 2.0 5.0 0.00 0.00 0.00 28 999.6
20260506224149 51 85 2.0 8.0 0.00 0.00 0.00 29 999.6
20260506223649 51 94 2.0 4.0 0.00 0.00 0.00 29 999.7
20260506223149 51 110 2.0 4.0 0.00 0.00 0.00 29 999.7
20260506222649 51 84 2.0 4.0 0.00 0.00 0.00 28 999.7
20260506222149 51 84 4.0 7.0 0.00 0.00 0.00 30 999.9
20260506221649 51 74 3.0 7.0 0.00 0.00 0.00 29 999.9
20260506221149 51 97 3.0 6.0 0.00 0.00 0.00 30 999.9
20260506220649 51 107 2.0 6.0 0.00 0.00 0.00 30 1000.3
20260506220149 51 163 2.0 4.0 0.00 0.00 0.00 30 1000.3
20260506215649 51 87 3.0 4.0 0.00 0.00 0.00 29 1000.3
20260506215149 51 74 3.0 7.0 0.00 0.00 0.00 30 1000.4
20260506214649 51 61 3.0 6.0 0.00 0.00 0.00 29 1000.4
20260506214149 51 31 3.0 7.0 0.00 0.00 0.00 29 1000.7
20260506213649 51 53 3.0 6.0 0.00 0.00 0.00 31 1000.7
20260506213149 51 101 2.0 6.0 0.00 0.00 0.00 30 1000.7
20260506212649 51 103 2.0 5.0 0.00 0.00 0.00 28 1000.7
20260506212149 51 92 2.0 5.0 0.00 0.00 0.00 29 1001.0
20260506211649 52 110 2.0 5.0 0.00 0.00 0.00 30 1001.0
20260506211149 51 108 3.0 4.0 0.00 0.00 0.00 33 1001.0
20260506210649 51 109 3.0 6.0 0.00 0.00 0.00 30 1001.1
20260506210149 51 111 2.0 6.0 0.00 0.00 0.00 31 1001.1
20260506205649 51 126 2.0 4.0 0.00 0.00 0.00 28 1001.1
20260506205149 51 101 3.0 5.0 0.00 0.00 0.00 29 1001.5
20260506204649 51 171 3.0 6.0 0.00 0.00 0.00 29 1001.5
20260506204149 51 80 3.0 7.0 0.00 0.00 0.00 32 1001.5
20260506203649 51 81 4.0 11.0 0.00 0.00 0.00 30 1001.6
20260506203149 51 84 3.0 5.0 0.00 0.00 0.00 30 1001.6
20260506202649 51 131 3.0 6.0 0.00 0.00 0.00 29 1001.6
20260506202149 51 94 3.0 7.0 0.00 0.00 0.00 32 1001.7
20260506201649 51 154 3.0 5.0 0.00 0.00 0.00 30 1001.7
20260506201149 51 79 3.0 7.0 0.00 0.00 0.00 31 1001.7
20260506200649 51 94 3.0 7.0 0.00 0.00 0.00 32 1001.8
20260506200149 51 94 2.0 5.0 0.00 0.00 0.00 32 1001.8
20260506195649 51 90 2.0 5.0 0.00 0.00 0.00 30 1001.8
20260506195149 51 82 3.0 8.0 0.00 0.00 0.00 32 1002.2
20260506194649 50 155 4.0 6.0 0.00 0.00 0.00 31 1002.2
20260506194149 50 103 4.0 7.0 0.00 0.00 0.00 31 1002.2
20260506193649 50 116 3.0 10.0 0.00 0.00 0.00 32 1002.4
20260506193149 50 95 3.0 7.0 0.00 0.00 0.00 33 1002.4
20260506192649 49 60 3.0 4.0 0.00 0.00 0.00 33 1002.4
20260506192149 49 85 3.0 6.0 0.00 0.00 0.00 31 1002.3
20260506191649 49 65 2.0 4.0 0.00 0.00 0.00 32 1002.3
20260506191149 49 57 3.0 5.0 0.00 0.00 0.00 31 1002.3
20260506190649 50 86 2.0 6.0 0.00 0.00 0.00 34 1002.4
20260506190149 49 80 3.0 5.0 0.00 0.00 0.00 34 1002.4
20260506185649 50 69 3.0 5.0 0.00 0.00 0.00 31 1002.4
20260506185149 50 19 3.0 5.0 0.00 0.00 0.00 33 1002.8
20260506184649 50 74 4.0 9.0 0.00 0.00 0.00 32 1002.8
20260506184149 50 60 4.0 7.0 0.00 0.00 0.00 33 1002.8
20260506183649 50 316 4.0 10.0 0.00 0.00 0.00 32 1002.8
20260506183149 51 91 4.0 7.0 0.00 0.00 0.00 30 1002.8
20260506182649 51 83 3.0 6.0 0.00 0.00 0.00 33 1002.8
20260506182149 50 96 3.0 7.0 0.00 0.00 0.00 35 1003.1
20260506181649 49 105 4.0 5.0 0.00 0.00 0.00 33 1003.1
20260506181150 49 21 4.0 6.0 0.00 0.00 0.00 33 1003.1
20260506180649 49 45 5.0 12.0 0.00 0.00 0.00 32 1003.3
20260506180149 49 59 4.0 8.0 0.00 0.00 0.00 35 1003.3
20260506175649 48 17 3.0 10.0 0.00 0.00 0.00 34 1003.3
20260506175149 48 84 4.0 7.0 0.00 0.00 0.00 33 1003.6
20260506174649 48 44 3.0 8.0 0.00 0.00 0.00 33 1003.6
20260506174149 48 142 3.0 7.0 0.00 0.00 0.00 33 1003.6
20260506173649 48 136 3.0 9.0 0.00 0.00 0.00 32 1004.1
20260506173149 48 26 2.0 7.0 0.00 0.00 0.00 31 1004.1
20260506172649 47 219 3.0 5.0 0.00 0.00 0.00 32 1004.1
20260506172149 47 118 3.0 6.0 0.00 0.00 0.00 33 1004.0
20260506171649 46 342 3.0 13.0 0.00 0.00 0.00 34 1004.0
20260506171149 46 339 3.0 11.0 0.00 0.00 0.00 34 1004.0
20260506170649 46 11 2.0 7.0 0.00 0.00 0.00 33 1004.1
20260506170149 46 42 3.0 6.0 0.00 0.00 0.00 36 1004.1
20260506165649 45 158 3.0 7.0 0.00 0.00 0.00 35 1004.1
20260506165149 45 355 3.0 9.0 0.00 0.00 0.00 35 1004.7
20260506164649 45 44 2.0 5.0 0.00 0.00 0.00 34 1004.7
20260506164149 45 30 2.0 6.0 0.00 0.00 0.00 35 1004.7
20260506163650 45 71 3.0 7.0 0.00 0.00 0.00 36 1004.9
20260506163149 45 61 3.0 7.0 0.00 0.00 0.00 36 1004.9
20260506162649 45 355 4.0 7.0 0.00 0.00 0.00 36 1004.9
20260506162149 45 14 4.0 9.0 0.00 0.00 0.00 34 1004.8
20260506161649 44 265 3.0 6.0 0.00 0.00 0.00 37 1004.8
20260506161149 44 76 3.0 5.0 0.00 0.00 0.00 35 1004.8
20260506160649 44 37 3.0 7.0 0.00 0.00 0.00 35 1004.8
20260506160149 44 36 2.0 8.0 0.00 0.00 0.00 35 1004.8
20260506155649 44 257 3.0 4.0 0.00 0.00 0.00 35 1004.8
20260506155149 44 327 3.0 5.0 0.00 0.00 0.00 36 1004.9
20260506154650 44 62 3.0 6.0 0.00 0.00 0.00 37 1004.9
20260506154150 44 44 3.0 5.0 0.00 0.00 0.00 38 1004.9
20260506153649 44 312 3.0 6.0 0.00 0.00 0.00 36 1005.2
20260506153149 44 74 3.0 8.0 0.00 0.00 0.00 37 1005.2
20260506152650 44 34 3.0 7.0 0.00 0.00 0.00 37 1005.2
20260506152150 44 15 3.0 6.0 0.00 0.00 0.00 37 1005.1
20260506151650 44 109 2.0 5.0 0.00 0.00 0.00 37 1005.1
20260506151150 44 9 2.0 6.0 0.00 0.00 0.00 36 1005.1
20260506150650 44 182 2.0 5.0 0.00 0.00 0.00 35 1005.2
20260506150150 43 112 2.0 4.0 0.00 0.00 0.00 38 1005.2
20260506145650 43 147 2.0 6.0 0.00 0.00 0.00 36 1005.2
20260506145150 43 223 2.0 5.0 0.00 0.00 0.00 39 1005.2
20260506144650 43 57 1.0 6.0 0.00 0.00 0.00 36 1005.2